Location: Unspecified
(35.6961°N, 0.0000°E)
Time: 13:40:05
(UTC+00:00)

Vanguard 3 - Pass Details

Date: 02 June 2019
Orbit: 508 x 3263 km, 33.3° (Epoch: 19 June)

Event Time Altitude Azimuth Distance (km) Brightness Sun altitude
Rises 23:32:05 0° 273° (W) 3,740 10.7 -31.7°
Reaches altitude 10° 23:34:33 10° 263° (W) 3,073 10.1 -31.8°
Enters shadow 23:36:18 18° 253° (WSW) 2,708 9.7 -31.8°
Maximum altitude 23:41:28 34° 202° (SSW) 2,482 - -31.9°
Drops below altitude 10° 23:52:38 10° 145° (SE) 5,004 - -32.0°
Sets 23:58:01 0° 138° (SE) 6,445 - -32.1°
